Content
SEND FEEDBACK

Daily
Averages
Monthly
Summary
Mexico

CANCUN, QUINTANA ROO


Home > North America > Mexico > Quintana Roo
Elevation: 9 meters     Latitude: 21 09N     Longitude: 086 49W

WEATHER
 
SELECT A DAY
Number of Records: 163,654;   Date Range: 1/1/95 - 7/20/14
 
SHARE

PRINT THIS DATA

[ ← Previous Day ]
WEATHER ALMANAC - 15 OCTOBER, 2013
[ Next Day → ]
[ °F ]   °C
Weather ElementAverageHighLow
Temperature25.1 °C30 °C (1:40 pm)21 °C (2:43 am)
Dewpoint21.9 °C23 °C (8:55 am)20 °C (3:46 am)
Humidity83.5 %100 % (2:43 am)62 % (1:40 pm)
Barometer1013.2 hPa1014.9 hPa (9:51 am)1011.9 hPa (4:46 pm)
Wind Speed5.6 km/h14.8 km/h (2:45 pm)
Weather ElementAverage
Visibility11.3 km
Wind DirectionSSE (143.9 °)

Weather ElementTotal
Precipitation---
Cooling Degree Days7.2 (Base 18.3)
Growing Degree Days15.5 (Base 10)
Averaged from 23 records on 15 October, 2013
WEATHER CONDITIONS BREAKOUT
WIND DIRECTION BREAKOUT
WEATHER BY HOUR - 15 OCTOBER, 2013
[ °F ]   °C
Local TimeTemperatureDewpointHumidityBarometerVisibilityWind DirectionWind SpeedGust SpeedPrecipitationEventsConditions
1:44 AM22 °C21 °C94 %1013.2 hPa11.3 kmCalmPartly Cloudy
2:43 AM21 °C21 °C100 %1012.9 hPa11.3 kmCalmPartly Cloudy
3:46 AM21 °C20 °C94 %1012.2 hPa11.3 kmCalmScattered Clouds
4:45 AM21 °C20 °C94 %1012.5 hPa11.3 kmCalmScattered Clouds
5:44 AM21 °C20 °C94 %1012.9 hPa11.3 kmNNW (330°)9.3 km/hPartly Cloudy
6:43 AM21 °C21 °C100 %1013.2 hPa11.3 kmNNW (330°)9.3 km/hScattered Clouds
7:40 AM23 °C21 °C88 %1013.5 hPa11.3 kmNNW (330°)9.3 km/hScattered Clouds
8:55 AM27 °C23 °C79 %1014.2 hPa11.3 kmNNW (330°)9.3 km/hScattered Clouds
9:51 AM28 °C23 °C74 %1014.9 hPa11.3 kmNNW (340°)7.4 km/hScattered Clouds
10:42 AM29 °C23 °C70 %1014.6 hPa11.3 kmNNE (30°)7.4 km/hMostly Cloudy
11:43 AM28 °C23 °C74 %1013.9 hPa11.3 kmNNW (340°)3.7 km/hMostly Cloudy
12:47 PM29 °C23 °C70 %1013.5 hPa11.3 kmCalmMostly Cloudy
1:40 PM30 °C22 °C62 %1012.5 hPa11.3 kmEast (90°)7.4 km/hMostly Cloudy
2:45 PM28 °C23 °C74 %1012.2 hPa11.3 kmEast (100°)14.8 km/hScattered Clouds
3:45 PM28 °C23 °C74 %1012.2 hPa11.3 kmEast (100°)13 km/hMostly Cloudy
4:46 PM28 °C23 °C74 %1011.9 hPa11.3 kmESE (110°)9.3 km/hScattered Clouds
5:42 PM28 °C23 °C74 %1012.2 hPa11.3 kmEast (100°)7.4 km/hScattered Clouds
6:52 PM26 °C22 °C78 %1012.2 hPa11.3 kmENE (60°)3.7 km/hScattered Clouds
7:41 PM25 °C22 °C83 %1013.5 hPa11.3 kmENE (60°)3.7 km/hScattered Clouds
8:40 PM24 °C22 °C89 %1013.9 hPa11.3 kmENE (60°)3.7 km/hPartly Cloudy
9:47 PM23 °C22 °C94 %1014.2 hPa11.3 kmCalmPartly Cloudy
10:50 PM23 °C22 °C94 %1014.6 hPa11.3 kmNW (320°)5.6 km/hPartly Cloudy
11:48 PM22 °C21 °C94 %1014.6 hPa11.3 kmWest (280°)3.7 km/hClear
Hourly data recorded from MMUN, located 0 kilometers away from Cancun, Quintana Roo







STORIES FROM OUR PARTNERS